GRAYS REEF NM Southeast of Savannah, GA (41008)

Conditions for Friday

Daily
Weekly
Monthly
Marine Data Graph

Marine & Boating Location Search

Enter a coastal zip code for marine weather.

General Information

Location: 31.402 North -80.869 West
Buoy Type: 3-meter discus buoy
Buoy Hull: 3D36
Payload: AMPS payload
Owned by: NDBC
Windspeed: Measured by obtained from anemometer
Sea Surface: Measured by Intake
Note: This buoy is located in Gray's Reef National Marine Sanctuary The southern third of NOAA's 22-square mile Gray's Reef National Marine Sanctuary has be designated a research area specifically designed for conducting controlled scientific studies where human activities cannot affect the results. Fishing and diving will be prohibited in the lightly used, 8-square mile research area. Vessels are permitted to travel through it without stopping. For complete information, go the Gray's Reef website at graysreef.noaa.gov  
LINK TO PMEL's pCO2 SITE for their data on this Station: http://www.pmel.noaa.gov/co2/coastal/NDBC_41008/data_081w_14d.htm NDBC ADCPs are now quality controlled using automated methods. Historical and forty-five day files beginning 1 June 2010 are available in a new format that contains more QC information.  The forty-five day files in the old format will be resident until approximately 31 July 2010. 

Weather and Wave Data

Time Temp Humidity Wind Dominant Wave Wind Wave Wave Swell Pressure
  Air
(°F)
Water
(°F)
  Dir Speed
(kts)
Speed
(mph)
Period
(sec)
Height
(ft)
Range
(ft)
Period
(sec)
Height
(ft)
Range
(ft)
Period
(sec)
Height
(ft)
Range
(ft)
Atmo.
(in)
Tend.
(in)
20:50 50 60 69 West 23.3 26.8 5 4.92 exactly 4.9 5 4.92 4.10 - 5.74 - - - 30.03 +0.11
21:50 49 60 69 WNW 27.2 31.3 5 6.23 exactly 6.2 5 6.56 5.74 - 7.38 - - - 30.06 +0.12
22:50 47 60 69 WNW 25.3 29.1 5 5.91 exactly 5.9 5 6.56 5.74 - 7.38 - - - 30.09 +0.12
23:50 47 60 71 WNW 23.3 26.8 5 5.25 exactly 5.2 5 4.92 4.10 - 5.74 - - - 30.10 +0.07
00:50 47 60 73 NW 23.3 26.8 5 5.25 exactly 5.2 5 4.92 4.10 - 5.74 - - - 30.12 +0.06
01:50 48 60 72 NNW 25.3 29.1 5 4.92 exactly 4.9 5 4.92 4.10 - 5.74 - - - 30.14 +0.06
02:50 49 60 75 NNW 23.3 26.8 5 4.59 exactly 4.6 5 4.92 4.10 - 5.74 - - - 30.16 +0.06
03:50 50 60 80 North 21.4 24.6 5 4.59 exactly 4.6 5 4.92 4.10 - 5.74 - - - 30.19 +0.07
04:50 52 60 70 North 27.2 31.3 5 4.59 exactly 4.6 5 4.92 4.10 - 5.74 - - - 30.21 +0.06
05:50 51 60 70 North 29.2 33.6 6 6.23 exactly 6.2 6 6.56 5.74 - 7.38 - - - 30.24 +0.08
06:50 51 60 66 NNE 27.2 31.3 7 7.87 exactly 7.9 7 8.20 7.38 - 9.02 - - - 30.27 +0.09
07:50 50 60 66 NNE 27.2 31.3 7 7.87 exactly 7.9 7 8.20 7.38 - 9.02 - - - 30.32 +0.11
08:50 51 60 64 NNE 23.3 26.8 6 7.87 exactly 7.9 6 8.20 7.38 - 9.02 - - - 30.36 +0.12
09:50 50 60 68 NNE 21.4 24.6 7 7.55 exactly 7.5 7 8.20 7.38 - 9.02 11 1.64 0.82 - 2.46 30.40 +0.12
10:50 50 60 69 NNE 21.4 24.6 7 7.55 exactly 7.5 7 8.20 7.38 - 9.02 - - - 30.42 +0.10
11:50 50 61 67 NNE 21.4 24.6 8 7.55 exactly 7.5 8 8.20 7.38 - 9.02 - - - 30.41 +0.05
12:50 51 61 57 NNE 19.4 22.4 6 6.89 exactly 6.9 6 6.56 5.74 - 7.38 - - - 30.40 -
13:50 52 61 48 NNE 19.4 22.4 6 7.22 exactly 7.2 6 6.56 5.74 - 7.38 8 3.28 2.46 - 4.10 30.40 -0.02
14:50 52 60 47 NNE 17.5 20.1 6 6.89 exactly 6.9 6 6.56 5.74 - 7.38 13 1.64 0.82 - 2.46 30.41 -
15:50 53 60 42 NNE 15.6 17.9 7 5.91 exactly 5.9 7 4.92 4.10 - 5.74 11 3.28 2.46 - 4.10 30.42 +0.02
16:50 53 60 44 NNE 15.6 17.9 7 5.58 exactly 5.6 7 4.92 4.10 - 5.74 9 3.28 2.46 - 4.10 30.43 +0.03
17:50 54 60 40 NE 17.5 20.1 8 5.25 exactly 5.2 6 4.92 4.10 - 5.74 8 1.64 0.82 - 2.46 30.44 +0.03
18:50 54 60 44 NE 17.5 20.1 8 5.25 exactly 5.2 7 4.92 4.10 - 5.74 8 1.64 0.82 - 2.46 30.45 +0.04
19:50 55 60 47 NE 17.5 20.1 7 4.92 exactly 4.9 7 4.92 4.10 - 5.74 11 1.64 0.82 - 2.46 30.46 +0.03
20:50 55 60 50 NE 17.5 20.1 5 5.25 exactly 5.2 5 4.92 4.10 - 5.74 - - - 30.46 +0.02
21:50 55 60 57 NNE 17.5 20.1 7 4.92 exactly 4.9 7 4.92 4.10 - 5.74 11 1.64 0.82 - 2.46 30.45 -
22:50 56 60 61 NNE 17.5 20.1 7 5.58 exactly 5.6 7 4.92 4.10 - 5.74 11 1.64 0.82 - 2.46 30.42 -0.04
23:50 56 60 59 NNE 17.5 20.1 7 5.58 exactly 5.6 7 4.92 4.10 - 5.74 12 3.28 2.46 - 4.10 30.40 -0.06
00:50 57 61 61 NNE 17.5 20.1 7 5.58 exactly 5.6 7 4.92 4.10 - 5.74 12 1.64 0.82 - 2.46 30.39 -0.06
01:50 56 61 69 North 19.4 22.4 6 5.25 exactly 5.2 6 4.92 4.10 - 5.74 12 3.28 2.46 - 4.10 30.38 -0.05
02:50 54 61 72 North 21.4 24.6 7 5.58 exactly 5.6 7 4.92 4.10 - 5.74 11 3.28 2.46 - 4.10 30.37 -0.03
03:50 54 61 73 North 23.3 26.8 5 5.58 exactly 5.6 5 4.92 4.10 - 5.74 11 3.28 2.46 - 4.10 30.36 -0.03

Detailed Wave Spectra

Time Water Depth Wave Height Spectral Peak Period Average Wave Period Sampling Interval Wave Record
20:00 59 ft 4.53 ft 5.3 sec 4.4 sec 0.6 sec 2400 sec
21:00 59 ft 5.02 ft 5.3 sec 4.2 sec 0.6 sec 2400 sec
22:00 59 ft 6.23 ft 5.0 sec 4.6 sec 0.6 sec 2400 sec
23:00 59 ft 5.84 ft 5.0 sec 4.6 sec 0.6 sec 2400 sec
00:00 59 ft 5.28 ft 5.0 sec 4.4 sec 0.6 sec 2400 sec
01:00 59 ft 5.22 ft 5.3 sec 4.5 sec 0.6 sec 2400 sec
02:00 59 ft 5.09 ft 5.0 sec 4.3 sec 0.6 sec 2400 sec
03:00 59 ft 4.59 ft 5.0 sec 4.0 sec 0.6 sec 2400 sec
04:00 59 ft 4.49 ft 4.8 sec 4.0 sec 0.6 sec 2400 sec
05:00 59 ft 4.76 ft 4.8 sec 4.1 sec 0.6 sec 2400 sec
06:00 59 ft 6.33 ft 5.9 sec 4.7 sec 0.6 sec 2400 sec
07:00 59 ft 7.74 ft 6.7 sec 5.1 sec 0.6 sec 2400 sec
08:00 59 ft 7.81 ft 6.7 sec 5.2 sec 0.6 sec 2400 sec
09:00 59 ft 7.97 ft 6.3 sec 5.2 sec 0.6 sec 2400 sec
10:00 59 ft 7.48 ft 6.7 sec 5.2 sec 0.6 sec 2400 sec
11:00 59 ft 7.45 ft 7.1 sec 5.3 sec 0.6 sec 2400 sec
12:00 59 ft 7.38 ft 8.3 sec 5.3 sec 0.6 sec 2400 sec
13:00 59 ft 6.96 ft 5.9 sec 5.1 sec 0.6 sec 2400 sec
14:00 59 ft 7.09 ft 6.3 sec 5.3 sec 0.6 sec 2400 sec
15:00 59 ft 6.79 ft 6.3 sec 5.3 sec 0.6 sec 2400 sec
16:00 59 ft 6.07 ft 7.1 sec 5.3 sec 0.6 sec 2400 sec
17:00 59 ft 5.68 ft 7.1 sec 5.2 sec 0.6 sec 2400 sec
18:00 59 ft 5.31 ft 8.3 sec 5.0 sec 0.6 sec 2400 sec
19:00 59 ft 5.12 ft 7.7 sec 4.9 sec 0.6 sec 2400 sec
20:00 59 ft 4.89 ft 7.1 sec 4.7 sec 0.6 sec 2400 sec
21:00 59 ft 5.38 ft 5.3 sec 4.7 sec 0.6 sec 2400 sec
22:00 59 ft 4.99 ft 6.7 sec 4.7 sec 0.6 sec 2400 sec
23:00 59 ft 5.48 ft 6.7 sec 5.1 sec 0.6 sec 2400 sec
00:00 59 ft 5.74 ft 6.7 sec 5.1 sec 0.6 sec 2400 sec
01:00 59 ft 5.48 ft 6.7 sec 5.1 sec 0.6 sec 2400 sec
02:00 59 ft 5.41 ft 6.3 sec 5.0 sec 0.6 sec 2400 sec
03:00 59 ft 5.54 ft 6.7 sec 4.9 sec 0.6 sec 2400 sec